• En Estados Unidos
  • Lista de países
  • Para 7 días
  • Temperatura del agua
  • Mapa Satelital
  • El tiempo en el mapa
  • Informadores
  • user-avatar
    Iniciar sesión

    Tiempo cada hora Constantine

    Hoy, 25 Septiembre, Martes

    Tiempo Temperatura Precipitaciones Viento Presión Humedad
    00:00 +23°C° 0 mm 1 mps 714 mmHg 83%
    01:00 +22°C° 0 mm 1 mps 714 mmHg 84%
    02:00 +22°C° 0 mm 1 mps 714 mmHg 86%
    03:00 +22°C° 0 mm 1 mps 714 mmHg 88%
    04:00 +22°C° 0 mm 1 mps 714 mmHg 88%
    05:00 +21°C° 0 mm 1 mps 714 mmHg 88%
    06:00 +21°C° 0 mm 1 mps 714 mmHg 88%
    07:00 +22°C° 0 mm 1 mps 714 mmHg 81%
    08:00 +23°C° 0 mm 1 mps 715 mmHg 75%
    09:00 +24°C° 0 mm 1 mps 715 mmHg 69%
    10:00 +26°C° 0 mm 1 mps 715 mmHg 62%
    11:00 +27°C° 0 mm 2 mps 715 mmHg 55%
    12:00 +28°C° 0 mm 2 mps 715 mmHg 49%
    13:00 +28°C° 0 mm 3 mps 715 mmHg 48%
    14:00 +28°C° 0 mm 3 mps 714 mmHg 47%
    15:00 +28°C° 0 mm 4 mps 714 mmHg 47%
    16:00 +27°C° 0 mm 4 mps 714 mmHg 54%
    17:00 +26°C° 0 mm 4 mps 714 mmHg 60%
    18:00 +23°C° 0 mm 4 mps 714 mmHg 67%
    19:00 +24°C° 0.5 mm 3 mps 714 mmHg 71%
    20:00 +23°C° 0.5 mm 2 mps 714 mmHg 75%
    21:00 +21°C° 0.5 mm 2 mps 715 mmHg 78%
    22:00 +21°C° 0.2 mm 2 mps 715 mmHg 79%
    23:00 +21°C° 0.2 mm 2 mps 715 mmHg 81%

    Mañana, 26 Septiembre, Miércoles

    Tiempo Temperatura Precipitaciones Viento Presión Humedad
    00:00 +21°C° 0.2 mm 1 mps 715 mmHg 82%
    01:00 +21°C° 0.2 mm 1 mps 715 mmHg 84%
    02:00 +21°C° 0.2 mm 1 mps 714 mmHg 85%
    03:00 +20°C° 0.2 mm 1 mps 714 mmHg 86%
    04:00 +20°C° 0 mm 1 mps 715 mmHg 86%
    05:00 +20°C° 0 mm 1 mps 715 mmHg 87%
    06:00 +20°C° 0 mm 1 mps 715 mmHg 87%
    07:00 +21°C° 0 mm 1 mps 715 mmHg 79%
    08:00 +23°C° 0 mm 2 mps 716 mmHg 72%
    09:00 +24°C° 0 mm 2 mps 716 mmHg 64%
    10:00 +25°C° 0 mm 2 mps 716 mmHg 59%
    11:00 +26°C° 0 mm 3 mps 716 mmHg 54%
    12:00 +27°C° 0 mm 4 mps 717 mmHg 48%
    13:00 +27°C° 0 mm 4 mps 716 mmHg 50%
    14:00 +27°C° 0 mm 5 mps 716 mmHg 51%
    15:00 +27°C° 0 mm 6 mps 716 mmHg 53%
    16:00 +25°C° 0.1 mm 5 mps 716 mmHg 59%
    17:00 +23°C° 0.1 mm 5 mps 716 mmHg 65%
    18:00 +22°C° 0.1 mm 5 mps 716 mmHg 71%
    19:00 +22°C° 0.2 mm 4 mps 717 mmHg 73%
    20:00 +21°C° 0.2 mm 4 mps 717 mmHg 75%
    21:00 +21°C° 0.2 mm 3 mps 717 mmHg 77%
    22:00 +20°C° 0 mm 3 mps 717 mmHg 77%
    23:00 +20°C° 0 mm 3 mps 717 mmHg 78%

    Pasado mañana, 27 Septiembre, Jueves

    Tiempo Temperatura Precipitaciones Viento Presión Humedad
    00:00 +20°C° 0 mm 2 mps 717 mmHg 79%
    01:00 +20°C° 0 mm 2 mps 717 mmHg 80%
    02:00 +19°C° 0 mm 2 mps 717 mmHg 80%
    03:00 +19°C° 0 mm 2 mps 717 mmHg 81%
    04:00 +19°C° 0 mm 2 mps 717 mmHg 82%
    05:00 +19°C° 0 mm 2 mps 717 mmHg 82%
    06:00 +19°C° 0 mm 1 mps 717 mmHg 82%
    07:00 +21°C° 0 mm 1 mps 717 mmHg 76%
    08:00 +22°C° 0 mm 1 mps 718 mmHg 70%
    09:00 +23°C° 0 mm 2 mps 718 mmHg 64%
    10:00 +24°C° 0 mm 2 mps 718 mmHg 58%
    11:00 +25°C° 0 mm 2 mps 718 mmHg 53%
    12:00 +26°C° 0 mm 2 mps 718 mmHg 47%
    13:00 +27°C° 0 mm 3 mps 717 mmHg 45%
    14:00 +27°C° 0 mm 3 mps 717 mmHg 42%
    15:00 +27°C° 0 mm 4 mps 716 mmHg 40%
    16:00 +26°C° 0 mm 3 mps 716 mmHg 43%
    17:00 +25°C° 0 mm 3 mps 716 mmHg 47%
    18:00 +22°C° 0 mm 3 mps 715 mmHg 50%
    19:00 +23°C° 0 mm 2 mps 715 mmHg 54%
    20:00 +21°C° 0 mm 2 mps 715 mmHg 58%
    21:00 +21°C° 0 mm 1 mps 715 mmHg 62%
    22:00 +21°C° 0 mm 1 mps 715 mmHg 63%
    23:00 +20°C° 0 mm 1 mps 715 mmHg 65%

    28 Septiembre, Viernes

    Tiempo Temperatura Precipitaciones Viento Presión Humedad
    00:00 +20°C° 0 mm 1 mps 714 mmHg 67%
    01:00 +20°C° 0 mm 1 mps 714 mmHg 68%
    02:00 +19°C° 0 mm 1 mps 713 mmHg 69%
    03:00 +19°C° 0 mm 1 mps 713 mmHg 70%
    04:00 +19°C° 0 mm 1 mps 713 mmHg 70%
    05:00 +17°C° 0 mm 0 mps 713 mmHg 70%
    06:00 +17°C° 0 mm 0 mps 713 mmHg 71%
    07:00 +20°C° 0 mm 1 mps 713 mmHg 63%
    08:00 +22°C° 0 mm 1 mps 714 mmHg 56%
    09:00 +24°C° 0 mm 1 mps 714 mmHg 48%
    10:00 +25°C° 0 mm 1 mps 714 mmHg 43%
    11:00 +26°C° 0 mm 2 mps 714 mmHg 38%
    12:00 +27°C° 0 mm 3 mps 713 mmHg 33%
    13:00 +27°C° 0 mm 3 mps 713 mmHg 34%
    14:00 +27°C° 0 mm 4 mps 713 mmHg 34%
    15:00 +27°C° 0 mm 4 mps 712 mmHg 34%
    16:00 +26°C° 0 mm 3 mps 712 mmHg 40%
    17:00 +24°C° 0 mm 3 mps 712 mmHg 46%
    18:00 +23°C° 0 mm 2 mps 712 mmHg 52%
    19:00 +21°C° 0 mm 2 mps 712 mmHg 57%
    20:00 +21°C° 0 mm 1 mps 712 mmHg 62%
    21:00 +20°C° 0 mm 1 mps 712 mmHg 66%
    22:00 +20°C° 0 mm 1 mps 712 mmHg 68%
    23:00 +18°C° 0 mm 0 mps 711 mmHg 70%

    29 Septiembre, Sábado

    Tiempo Temperatura Precipitaciones Viento Presión Humedad
    00:00 +17°C° 0 mm 0 mps 711 mmHg 72%
    01:00 +17°C° 0 mm 0 mps 711 mmHg 72%
    02:00 +17°C° 0 mm 0 mps 711 mmHg 73%
    03:00 +16°C° 0 mm 0 mps 710 mmHg 73%
    04:00 +16°C° 0 mm 0 mps 711 mmHg 72%
    05:00 +16°C° 0 mm 0 mps 711 mmHg 71%
    06:00 +16°C° 0 mm 0 mps 711 mmHg 69%
    07:00 +18°C° 0 mm 0 mps 711 mmHg 61%
    08:00 +20°C° 0 mm 0 mps 711 mmHg 52%
    09:00 +22°C° 0 mm 0 mps 712 mmHg 44%
    10:00 +26°C° 0 mm 1 mps 712 mmHg 40%
    11:00 +27°C° 0 mm 2 mps 712 mmHg 36%
    12:00 +28°C° 0 mm 2 mps 712 mmHg 32%
    13:00 +28°C° 0 mm 3 mps 711 mmHg 32%
    14:00 +28°C° 0 mm 3 mps 711 mmHg 33%
    15:00 +28°C° 0 mm 3 mps 711 mmHg 33%
    16:00 +27°C° 0 mm 3 mps 711 mmHg 39%
    17:00 +25°C° 0 mm 2 mps 711 mmHg 44%
    18:00 +24°C° 0 mm 2 mps 711 mmHg 50%
    19:00 +23°C° 0 mm 2 mps 711 mmHg 53%
    20:00 +23°C° 0 mm 1 mps 711 mmHg 56%
    21:00 +22°C° 0 mm 1 mps 712 mmHg 60%
    22:00 +22°C° 0 mm 1 mps 711 mmHg 60%
    23:00 +19°C° 0 mm 0 mps 711 mmHg 61%

    30 Septiembre, Domingo

    Tiempo Temperatura Precipitaciones Viento Presión Humedad
    00:00 +19°C° 0 mm 0 mps 711 mmHg 62%
    01:00 +19°C° 0 mm 0 mps 711 mmHg 61%
    02:00 +19°C° 0 mm 0 mps 711 mmHg 61%
    03:00 +18°C° 0 mm 0 mps 711 mmHg 61%
    04:00 +20°C° 0 mm 1 mps 711 mmHg 60%
    05:00 +21°C° 0 mm 1 mps 711 mmHg 60%
    06:00 +21°C° 0 mm 1 mps 711 mmHg 59%
    07:00 +23°C° 0 mm 1 mps 712 mmHg 53%
    08:00 +24°C° 0 mm 1 mps 712 mmHg 47%
    09:00 +26°C° 0 mm 2 mps 713 mmHg 41%
    10:00 +27°C° 0 mm 2 mps 712 mmHg 39%
    11:00 +28°C° 0 mm 3 mps 712 mmHg 38%
    12:00 +29°C° 0 mm 3 mps 712 mmHg 36%
    13:00 +29°C° 0 mm 3 mps 712 mmHg 36%
    14:00 +28°C° 0 mm 3 mps 712 mmHg 37%
    15:00 +28°C° 0 mm 4 mps 712 mmHg 38%
    16:00 +27°C° 0 mm 3 mps 712 mmHg 42%
    17:00 +25°C° 0 mm 3 mps 712 mmHg 47%
    18:00 +24°C° 0 mm 3 mps 712 mmHg 51%
    19:00 +23°C° 0 mm 2 mps 712 mmHg 54%
    20:00 +21°C° 0 mm 2 mps 712 mmHg 57%
    21:00 +22°C° 0 mm 1 mps 713 mmHg 59%
    22:00 +21°C° 0 mm 1 mps 712 mmHg 60%
    23:00 +21°C° 0 mm 1 mps 712 mmHg 62%
    Mostrar más